Time,TemperatureF,DewpointF,PressureIn,WindDirection,WindDirectionDegrees,WindSpeedMPH,WindSpeedGustMPH,Humidity,HourlyPrecipIn,Conditions,Clouds,dailyrainin,SoftwareType,DateUTC
2014-08-29 00:01:00,77.9,77.3,29.90,West,270,1.7,-999.0,98,-99.99,,,0.00,Acu-Link.com,2014-08-29 04:01:00,
2014-08-29 00:16:00,78.1,77.5,29.89,West,270,1.7,-999.0,98,-99.99,,,0.00,Acu-Link.com,2014-08-29 04:16:00,
2014-08-29 00:31:00,78.1,77.5,29.88,WSW,247,1.1,-999.0,98,-99.99,,,0.00,Acu-Link.com,2014-08-29 04:31:00,
2014-08-29 00:46:00,78.1,77.5,29.88,WSW,247,1.1,-999.0,98,-99.99,,,0.00,Acu-Link.com,2014-08-29 04:46:00,
2014-08-29 01:01:00,78.3,77.7,29.88,WSW,247,1.7,-999.0,98,-99.99,,,0.00,Acu-Link.com,2014-08-29 05:01:00,
2014-08-29 01:16:00,78.3,77.7,29.87,SE,135,1.1,-999.0,98,-99.99,,,0.00,Acu-Link.com,2014-08-29 05:16:00,
2014-08-29 01:32:00,78.1,77.5,29.88,SSE,157,1.7,-999.0,98,-99.99,,,0.00,Acu-Link.com,2014-08-29 05:32:00,
2014-08-29 01:47:00,78.1,77.5,29.88,NW,315,0.0,-999.0,98,-99.99,,,0.00,Acu-Link.com,2014-08-29 05:47:00,
2014-08-29 02:02:00,78.1,77.5,29.88,ESE,112,0.0,-999.0,98,-99.99,,,0.00,Acu-Link.com,2014-08-29 06:02:00,
2014-08-29 02:17:00,78.3,77.7,29.87,North,0,1.7,-999.0,98,-99.99,,,0.00,Acu-Link.com,2014-08-29 06:17:00,
2014-08-29 02:32:00,78.3,77.7,29.86,SSE,157,1.1,-999.0,98,-99.99,,,0.00,Acu-Link.com,2014-08-29 06:32:00,
2014-08-29 02:47:00,78.3,77.7,29.86,North,0,0.0,-999.0,98,-99.99,,,0.00,Acu-Link.com,2014-08-29 06:47:00,
2014-08-29 03:03:00,78.1,77.5,29.86,West,270,0.0,-999.0,98,-99.99,,,0.00,Acu-Link.com,2014-08-29 07:03:00,
2014-08-29 03:18:00,77.7,77.1,29.85,SW,225,0.0,-999.0,98,-99.99,,,0.00,Acu-Link.com,2014-08-29 07:18:00,
2014-08-29 03:33:00,77.5,76.9,29.85,SSW,202,0.0,-999.0,98,-99.99,,,0.00,Acu-Link.com,2014-08-29 07:33:00,
2014-08-29 03:48:00,77.5,76.9,29.86,WSW,247,0.0,-999.0,98,-99.99,,,0.00,Acu-Link.com,2014-08-29 07:48:00,
2014-08-29 04:03:00,77.5,76.9,29.86,WSW,247,0.0,-999.0,98,-99.99,,,0.00,Acu-Link.com,2014-08-29 08:03:00,
2014-08-29 04:18:00,77.7,77.1,29.86,South,180,0.0,-999.0,98,-99.99,,,0.00,Acu-Link.com,2014-08-29 08:18:00,
2014-08-29 04:33:00,77.5,76.9,29.87,West,270,0.0,-999.0,98,-99.99,,,0.00,Acu-Link.com,2014-08-29 08:33:00,
2014-08-29 04:48:00,77.9,77.3,29.87,WSW,247,0.0,-999.0,98,-99.99,,,0.00,Acu-Link.com,2014-08-29 08:48:00,
2014-08-29 05:03:00,77.9,77.3,29.88,SW,225,0.0,-999.0,98,-99.99,,,0.00,Acu-Link.com,2014-08-29 09:03:00,
2014-08-29 05:19:00,79.0,78.4,29.88,SSW,202,0.0,-999.0,98,-99.99,,,0.00,Acu-Link.com,2014-08-29 09:19:00,
2014-08-29 05:34:00,79.9,79.3,29.87,North,0,0.0,-999.0,98,-99.99,,,0.01,Acu-Link.com,2014-08-29 09:34:00,
2014-08-29 05:49:00,80.2,79.6,29.87,North,0,0.0,-999.0,98,-99.99,,,0.02,Acu-Link.com,2014-08-29 09:49:00,
2014-08-29 06:04:00,80.8,80.2,29.88,SSW,202,0.0,-999.0,98,-99.99,,,0.02,Acu-Link.com,2014-08-29 10:04:00,
2014-08-29 06:19:00,81.1,80.5,29.88,SW,225,0.0,-999.0,98,-99.99,,,0.02,Acu-Link.com,2014-08-29 10:19:00,
2014-08-29 06:34:00,81.0,80.4,29.88,NW,315,0.0,-999.0,98,-99.99,,,0.02,Acu-Link.com,2014-08-29 10:34:00,
2014-08-29 06:49:00,81.3,80.7,29.89,SSW,202,0.0,-999.0,98,-99.99,,,0.02,Acu-Link.com,2014-08-29 10:49:00,
2014-08-29 07:04:00,81.0,80.4,29.89,WSW,247,0.0,-999.0,98,-99.99,,,0.02,Acu-Link.com,2014-08-29 11:04:00,
2014-08-29 07:19:00,81.1,80.5,29.91,WSW,247,0.0,-999.0,98,-99.99,,,0.02,Acu-Link.com,2014-08-29 11:19:00,
2014-08-29 07:35:00,81.7,81.1,29.90,NNE,22,1.7,-999.0,98,-99.99,,,0.02,Acu-Link.com,2014-08-29 11:35:00,
2014-08-29 07:50:00,81.7,81.1,29.90,SW,225,0.0,-999.0,98,-99.99,,,0.02,Acu-Link.com,2014-08-29 11:50:00,
2014-08-29 08:05:00,82.4,81.8,29.90,NE,45,1.7,-999.0,98,-99.99,,,0.02,Acu-Link.com,2014-08-29 12:05:00,
2014-08-29 08:20:00,82.0,81.4,29.90,WNW,292,0.0,-999.0,98,-99.99,,,0.02,Acu-Link.com,2014-08-29 12:20:00,
2014-08-29 08:35:00,82.4,81.8,29.90,NE,45,0.0,-999.0,98,-99.99,,,0.02,Acu-Link.com,2014-08-29 12:35:00,
2014-08-29 08:50:00,82.9,82.3,29.90,ENE,67,1.7,-999.0,98,-99.99,,,0.02,Acu-Link.com,2014-08-29 12:50:00,
2014-08-29 09:05:00,83.7,83.1,29.91,NNE,22,1.7,-999.0,98,-99.99,,,0.02,Acu-Link.com,2014-08-29 13:05:00,
2014-08-29 09:20:00,84.7,84.1,29.91,NNE,22,1.7,-999.0,98,-99.99,,,0.02,Acu-Link.com,2014-08-29 13:20:00,
2014-08-29 09:35:00,85.5,64.1,29.91,NNE,22,2.7,-999.0,49,-99.99,,,0.02,Acu-Link.com,2014-08-29 13:35:00,
2014-08-29 09:50:00,84.7,-26.1,29.92,North,0,1.1,-999.0,1,-99.99,,,0.02,Acu-Link.com,2014-08-29 13:50:00,
2014-08-29 10:06:00,84.2,80.9,29.93,NNW,337,2.7,-999.0,90,-99.99,,,0.02,Acu-Link.com,2014-08-29 14:06:00,
2014-08-29 10:21:00,84.0,83.4,29.92,NNE,22,2.7,-999.0,98,-99.99,,,0.02,Acu-Link.com,2014-08-29 14:21:00,
2014-08-29 10:36:00,81.5,80.9,29.93,NNE,22,7.3,-999.0,98,-99.99,,,0.03,Acu-Link.com,2014-08-29 14:36:00,
2014-08-29 10:51:00,82.4,81.8,29.92,NNE,22,1.7,-999.0,98,-99.99,,,0.05,Acu-Link.com,2014-08-29 14:51:00,
2014-08-29 11:06:00,82.9,82.3,29.93,ENE,67,2.2,-999.0,98,-99.99,,,0.05,Acu-Link.com,2014-08-29 15:06:00,
2014-08-29 11:21:00,83.5,82.9,29.93,North,0,1.7,-999.0,98,-99.99,,,0.05,Acu-Link.com,2014-08-29 15:21:00,
2014-08-29 11:37:00,84.2,1.2,29.93,North,0,3.2,-999.0,4,-99.99,,,0.05,Acu-Link.com,2014-08-29 15:37:00,
2014-08-29 11:52:00,85.3,80.3,29.93,ENE,67,3.2,-999.0,85,-99.99,,,0.05,Acu-Link.com,2014-08-29 15:52:00,
2014-08-29 12:07:00,86.4,81.7,29.93,ENE,67,3.2,-999.0,86,-99.99,,,0.05,Acu-Link.com,2014-08-29 16:07:00,
2014-08-29 12:23:00,86.4,-25.0,29.92,ESE,112,6.8,-999.0,1,-99.99,,,0.05,Acu-Link.com,2014-08-29 16:23:00,
2014-08-29 12:38:00,86.5,57.1,29.91,SSE,157,4.2,-999.0,37,-99.99,,,0.05,Acu-Link.com,2014-08-29 16:38:00,
2014-08-29 12:53:00,86.5,60.0,29.92,ENE,67,9.4,-999.0,41,-99.99,,,0.05,Acu-Link.com,2014-08-29 16:53:00,
2014-08-29 13:08:00,86.7,-24.9,29.91,NE,45,4.2,-999.0,1,-99.99,,,0.05,Acu-Link.com,2014-08-29 17:08:00,
2014-08-29 13:23:00,87.4,83.4,29.91,West,270,4.7,-999.0,88,-99.99,,,0.05,Acu-Link.com,2014-08-29 17:23:00,
2014-08-29 13:38:00,84.7,-26.1,29.91,North,0,5.8,-999.0,1,-99.99,,,0.05,Acu-Link.com,2014-08-29 17:38:00,
2014-08-29 13:53:00,85.3,-25.7,29.91,ESE,112,1.7,-999.0,1,-99.99,,,0.05,Acu-Link.com,2014-08-29 17:53:00,
2014-08-29 14:08:00,87.4,-24.5,29.92,ENE,67,9.9,-999.0,1,-99.99,,,0.05,Acu-Link.com,2014-08-29 18:08:00,
2014-08-29 14:23:00,88.7,-23.7,29.91,NE,45,8.9,-999.0,1,-99.99,,,0.05,Acu-Link.com,2014-08-29 18:23:00,
2014-08-29 14:39:00,87.4,-24.5,29.91,South,180,3.7,-999.0,1,-99.99,,,0.05,Acu-Link.com,2014-08-29 18:39:00,
2014-08-29 14:54:00,87.6,-24.3,29.90,ENE,67,5.3,-999.0,1,-99.99,,,0.05,Acu-Link.com,2014-08-29 18:54:00,
2014-08-29 15:09:00,89.1,-23.5,29.89,East,90,2.2,-999.0,1,-99.99,,,0.05,Acu-Link.com,2014-08-29 19:09:00,
2014-08-29 15:25:00,90.0,-22.9,29.89,NW,315,4.2,-999.0,1,-99.99,,,0.05,Acu-Link.com,2014-08-29 19:25:00,
2014-08-29 15:40:00,89.1,-23.5,29.88,NNE,22,7.3,-999.0,1,-99.99,,,0.05,Acu-Link.com,2014-08-29 19:40:00,
2014-08-29 15:56:00,89.6,-23.2,29.87,SSE,157,6.3,-999.0,1,-99.99,,,0.05,Acu-Link.com,2014-08-29 19:56:00,
2014-08-29 16:13:00,88.9,-23.6,29.88,ESE,112,3.7,-999.0,1,-99.99,,,0.05,Acu-Link.com,2014-08-29 20:13:00,
2014-08-29 16:28:00,89.1,-23.5,29.87,WNW,292,3.7,-999.0,1,-99.99,,,0.05,Acu-Link.com,2014-08-29 20:28:00,
2014-08-29 16:43:00,88.7,-23.7,29.86,West,270,8.9,-999.0,1,-99.99,,,0.05,Acu-Link.com,2014-08-29 20:43:00,
2014-08-29 16:59:00,87.8,-24.2,29.87,ESE,112,5.8,-999.0,1,-99.99,,,0.05,Acu-Link.com,2014-08-29 20:59:00,
2014-08-29 17:14:00,88.0,-24.1,29.88,SW,225,5.3,-999.0,1,-99.99,,,0.05,Acu-Link.com,2014-08-29 21:14:00,
2014-08-29 17:29:00,88.0,-24.1,29.88,NNE,22,7.3,-999.0,1,-99.99,,,0.05,Acu-Link.com,2014-08-29 21:29:00,
2014-08-29 17:45:00,87.6,-24.3,29.89,NNE,22,5.3,-999.0,1,-99.99,,,0.05,Acu-Link.com,2014-08-29 21:45:00,
2014-08-29 18:00:00,87.4,-24.5,29.88,NW,315,4.7,-999.0,1,-99.99,,,0.05,Acu-Link.com,2014-08-29 22:00:00,
2014-08-29 18:15:00,86.9,-24.8,29.88,SE,135,9.4,-999.0,1,-99.99,,,0.05,Acu-Link.com,2014-08-29 22:15:00,
2014-08-29 18:30:00,86.9,-24.8,29.89,NNE,22,5.8,-999.0,1,-99.99,,,0.05,Acu-Link.com,2014-08-29 22:30:00,
2014-08-29 18:45:00,86.5,-25.0,29.90,East,90,3.7,-999.0,1,-99.99,,,0.05,Acu-Link.com,2014-08-29 22:45:00,
2014-08-29 19:00:00,86.0,-25.3,29.90,SSE,157,4.2,-999.0,1,-99.99,,,0.05,Acu-Link.com,2014-08-29 23:00:00,